User: anonymous   Login
Location: Passau
(48.5830°N, 13.4830°E)
Time: 23:15:21
(UTC+01:00)
Language:

BEESAT 3 - Orbit

View from above orbital plane
View from above orbital plane
View from above satellite
View from above satellite

Ground track
Ground track

The orbit data is extracted from the following two-line orbital elements,

1 39134U 13015E   21339.35575602  .00004585  00000-0  19612-3 0  9995
2 39134  64.8635 336.2393 0025350 308.9566  50.9304 15.23861305477626
Epoch (UTC): 05 December 2021 08:32:17
Eccentricity: 0.0025350
inclination: 64.8635°
perigee height: 477 km
apogee height: 511 km
right ascension of ascending node: 336.2393°
argument of perigee: 308.9566°
revolutions per day: 15.23861305
mean anomaly at epoch: 50.9304°
orbit number at epoch: 47762

The dashed part of the orbit path shows where the satellite is in the earth's shadow,  

DLR